Stations météo

réclame
Mon MeteoGroup
Stockholm/Bromma, Suède (2464): Température de l'air & dewpoint: 19.01.2020 01:00:00 - 25.01.2020 01:00:00 (CET)Stockholm/Bromma, Suède (2464): Vitesse du vent: 19.01.2020 01:00:00 - 25.01.2020 01:00:00 (CET)Stockholm/Bromma, Suède (2464): Direction du vent: 19.01.2020 01:00:00 - 25.01.2020 01:00:00 (CET)Stockholm/Bromma, Suède (2464): reduced air pressure: 19.01.2020 01:00:00 - 25.01.2020 01:00:00 (CET)Stockholm/Bromma, Suède (2464): visibility: 19.01.2020 01:00:00 - 25.01.2020 01:00:00 (CET)
Date & Time tt [°C] td [°C] ff [km/h] ff [knt] dd ppp [hPa] vv [km]
25.01.2020 01:00:00 3,4 -0,6 22 12 W 1004,3 10
25.01.2020 00:00:00 3,8 -0,4 22 12 W 1004,0 10
24.01.2020 23:00:00 4,0 0,3 18 10 W 1003,6 10
24.01.2020 22:00:00 4,4 0,9 21 11 W 1003,2 10
24.01.2020 21:00:00 4,3 1,8 21 11 W 1003,0 10
24.01.2020 20:00:00 4,3 2,0 18 10 WSW 1003,2 10
24.01.2020 19:00:00 4,3 2,0 13 7 WSW 1003,4 10
24.01.2020 18:00:00 4,5 1,9 13 7 WSW 1003,6 10
24.01.2020 17:00:00 4,7 2,2 13 7 WSW 1003,5 10
24.01.2020 16:00:00 5,5 2,1 13 7 W 1003,4 10
24.01.2020 15:00:00 6,6 2,9 13 7 WSW 1003,4 10
24.01.2020 14:00:00 7,4 3,4 16 9 W 1003,8 10
24.01.2020 13:00:00 7,6 3,6 16 9 WSW 1004,1 10
24.01.2020 12:00:00 7,4 3,8 16 9 WSW 1004,3 10
24.01.2020 11:00:00 6,9 3,7 18 10 W 1004,5 10
24.01.2020 10:00:00 5,9 3,6 15 8 WSW 1004,5 10
24.01.2020 09:00:00 5,7 3,5 15 8 WSW 1004,7 10
24.01.2020 08:00:00 5,5 3,5 21 11 WSW 1004,6 10
24.01.2020 07:00:00 5,4 3,2 16 9 WSW 1004,4 10
24.01.2020 06:00:00 5,5 3,3 18 10 WSW 1004,8 10
24.01.2020 05:00:00 5,3 3,1 9 5 WSW 1005,3 10
24.01.2020 04:00:00 4,9 3,2 8 4 SW 1005,6 10
24.01.2020 03:00:00 4,5 3,0 8 4 S 1006,1 10
24.01.2020 02:00:00 6,3 3,6 16 9 W 1006,2 10
24.01.2020 01:00:00 6,3 4,0 21 11 WSW 1006,9 10
24.01.2020 00:00:00 6,2 4,0 18 10 WSW 1007,1 10
23.01.2020 23:00:00 - - 13 7 WSW - 10
23.01.2020 22:00:00 5,4 3,9 13 7 WSW 1008,3 10
23.01.2020 21:00:00 4,3 3,3 11 6 SW 1008,6 10
23.01.2020 20:00:00 3,8 2,9 9 5 SW 1009,3 10
23.01.2020 19:00:00 4,5 3,2 13 7 W 1009,5 10
23.01.2020 18:00:00 3,8 2,3 16 9 WSW 1010,2 10
23.01.2020 17:00:00 3,5 1,9 15 8 SW 1010,9 10
23.01.2020 16:00:00 3,4 0,6 15 8 WSW 1011,8 10
23.01.2020 15:00:00 3,6 -0,2 16 9 WSW 1012,5 10
23.01.2020 14:00:00 3,4 -1,6 15 8 SW 1013,3 10
23.01.2020 13:00:00 3,3 -2,4 15 8 WSW 1014,6 10
23.01.2020 12:00:00 2,9 -3,0 15 8 SW 1016,4 10
23.01.2020 11:00:00 0,7 -3,6 15 8 SW 1017,5 10
23.01.2020 10:00:00 0,5 -4,0 16 9 SW 1018,2 10
23.01.2020 09:00:00 -1,1 -5,1 9 5 SSW 1019,6 10
23.01.2020 08:00:00 -2,5 -5,1 5 3 SSW 1020,8 10
23.01.2020 07:00:00 -2,1 -4,8 9 5 SW 1022,2 10
23.01.2020 06:00:00 -2,6 -4,8 5 3 SW 1022,9 10
23.01.2020 05:00:00 -2,0 -4,8 5 3 SW 1023,7 10
23.01.2020 04:00:00 -1,1 -4,4 9 5 WSW 1024,5 10
23.01.2020 03:00:00 -1,2 -4,4 8 4 WSW 1025,1 10
23.01.2020 02:00:00 -0,4 -4,5 9 5 WSW 1025,4 10
23.01.2020 01:00:00 0,0 -4,3 13 7 W 1025,6 10
23.01.2020 00:00:00 0,4 -4,4 11 6 W 1025,7 10
22.01.2020 23:00:00 0,5 -4,1 11 6 WNW 1025,3 10
22.01.2020 22:00:00 1,2 -4,1 13 7 WNW 1025,1 10
22.01.2020 21:00:00 1,5 -3,6 16 9 W 1025,1 10
22.01.2020 20:00:00 1,9 -3,2 18 10 W 1024,5 10
22.01.2020 19:00:00 2,3 -3,0 16 9 W 1024,3 10
22.01.2020 18:00:00 2,5 -3,2 13 7 W 1023,7 10
22.01.2020 17:00:00 2,5 -3,4 13 7 WNW 1023,1 10
22.01.2020 16:00:00 3,1 -3,3 18 10 WNW 1022,4 10
22.01.2020 15:00:00 3,9 -3,4 22 12 NW 1021,2 10
22.01.2020 14:00:00 4,6 -3,2 21 11 NW 1020,4 10
22.01.2020 13:00:00 4,3 -3,7 24 13 NW 1019,1 10
22.01.2020 12:00:00 4,0 -4,2 24 13 WNW 1018,1 10
22.01.2020 11:00:00 3,4 -4,3 29 16 WNW 1017,1 10
22.01.2020 10:00:00 3,1 -4,6 28 15 W 1016,3 10
22.01.2020 09:00:00 2,9 -4,3 29 16 W 1015,1 10
22.01.2020 08:00:00 3,1 -4,1 34 18 W 1014,3 10
22.01.2020 07:00:00 3,3 -4,2 31 17 W 1013,9 10
22.01.2020 06:00:00 3,7 -3,8 29 16 W 1013,8 10
22.01.2020 05:00:00 4,2 -3,6 29 16 W 1013,6 10
22.01.2020 04:00:00 4,6 -3,2 31 17 W 1013,4 10
22.01.2020 03:00:00 5,1 -3,2 31 17 W 1013,4 10
22.01.2020 02:00:00 5,2 -2,6 26 14 W 1013,5 10
22.01.2020 01:00:00 5,4 -2,4 24 13 W 1013,7 10
22.01.2020 00:00:00 5,8 -3,0 18 10 W 1013,8 10
21.01.2020 23:00:00 6,2 -2,7 21 11 W 1014,4 10
21.01.2020 22:00:00 5,9 -1,7 18 10 WSW 1015,3 10
21.01.2020 21:00:00 5,7 -0,6 16 9 W 1016,1 10
21.01.2020 20:00:00 6,1 -0,2 16 9 W 1016,6 10
21.01.2020 19:00:00 5,6 2,2 11 6 WSW 1017,4 10
21.01.2020 18:00:00 5,4 2,7 13 7 W 1018,4 10
21.01.2020 17:00:00 6,3 2,7 16 9 W 1019,0 10
21.01.2020 16:00:00 6,7 3,3 15 8 W 1019,2 10
21.01.2020 15:00:00 6,4 2,7 11 6 W 1018,7 10
21.01.2020 14:00:00 7,1 2,2 16 9 W 1018,6 10
21.01.2020 13:00:00 7,8 2,3 15 8 W 1018,4 10
21.01.2020 12:00:00 7,5 3,2 15 8 W 1018,5 10
21.01.2020 11:00:00 7,5 4,1 18 10 WNW 1017,5 10
21.01.2020 10:00:00 7,6 4,7 24 13 W 1017,3 10
21.01.2020 09:00:00 7,4 4,7 18 10 W 1016,8 10
21.01.2020 08:00:00 7,4 4,7 28 15 W 1015,7 10
21.01.2020 07:00:00 7,3 4,8 22 12 W 1015,3 10
21.01.2020 06:00:00 7,7 5,2 37 20 W 1015,4 10
21.01.2020 05:00:00 7,8 5,4 28 15 W 1015,4 10
21.01.2020 04:00:00 7,8 5,4 29 16 WSW 1015,7 10
21.01.2020 03:00:00 8,2 5,5 28 15 W 1016,3 10
21.01.2020 02:00:00 7,4 5,2 22 12 WSW 1017,3 10
21.01.2020 01:00:00 7,0 5,1 26 14 WSW 1018,1 10
21.01.2020 00:00:00 6,8 4,6 26 14 WSW 1018,7 10
20.01.2020 23:00:00 6,7 4,4 24 13 WSW 1019,9 10
20.01.2020 22:00:00 6,5 4,0 31 17 WSW 1020,5 10
20.01.2020 21:00:00 6,2 3,5 24 13 W 1021,4 10
20.01.2020 20:00:00 6,1 3,1 21 11 WSW 1021,7 10
20.01.2020 19:00:00 5,7 2,9 18 10 WSW 1022,5 10
20.01.2020 18:00:00 5,6 2,8 18 10 WSW 1023,5 10
20.01.2020 17:00:00 5,5 2,5 22 12 WSW 1023,6 10
20.01.2020 16:00:00 5,3 2,0 15 8 WSW 1024,3 10
20.01.2020 15:00:00 5,3 1,6 18 10 WSW 1024,9 10
20.01.2020 14:00:00 5,3 1,4 22 12 WSW 1025,6 10
20.01.2020 13:00:00 5,1 1,4 26 14 WSW 1026,4 10
20.01.2020 12:00:00 4,5 0,9 24 13 WSW 1027,0 10
20.01.2020 11:00:00 3,9 0,1 18 10 WSW 1027,3 10
20.01.2020 10:00:00 2,9 -1,1 11 6 SW 1028,1 10
20.01.2020 09:00:00 1,9 -1,9 11 6 SW 1028,6 10
20.01.2020 08:00:00 1,4 -2,5 13 7 SW 1029,1 10
20.01.2020 07:00:00 1,4 -2,7 15 8 SSW 1029,5 10
20.01.2020 06:00:00 1,4 -3,3 13 7 SW 1030,1 10
20.01.2020 05:00:00 1,4 -3,1 13 7 SW 1030,6 10
20.01.2020 04:00:00 1,3 -2,5 11 6 SW 1031,3 10
20.01.2020 03:00:00 1,4 -2,4 15 8 WSW 1031,9 10
20.01.2020 02:00:00 1,3 -2,3 13 7 WSW 1032,4 10
20.01.2020 01:00:00 0,9 -2,0 11 6 WSW 1031,9 10
20.01.2020 00:00:00 0,7 -1,7 9 5 SW 1032,3 10
19.01.2020 23:00:00 0,7 -1,9 9 5 WSW 1032,2 10
19.01.2020 22:00:00 1,2 -1,7 9 5 W 1031,8 10
19.01.2020 21:00:00 1,9 -1,5 13 7 W 1031,0 10
19.01.2020 20:00:00 2,3 -1,3 11 6 W 1031,0 10
19.01.2020 19:00:00 1,9 -0,8 9 5 WSW 1030,8 10
19.01.2020 18:00:00 2,8 -1,2 13 7 W 1029,9 10
19.01.2020 17:00:00 3,0 -0,8 11 6 WSW 1028,5 10
19.01.2020 16:00:00 3,9 -1,1 15 8 W 1027,5 10
19.01.2020 15:00:00 4,4 -1,0 13 7 W 1026,7 10
19.01.2020 14:00:00 4,8 -0,2 15 8 W 1025,6 10
19.01.2020 13:00:00 3,8 0,3 15 8 W 1023,8 10
19.01.2020 12:00:00 3,8 0,3 15 8 W 1023,8 10
19.01.2020 11:00:00 3,0 0,6 15 8 WSW 1022,9 10
19.01.2020 10:00:00 2,4 0,8 11 6 W 1021,8 10
19.01.2020 09:00:00 2,0 0,8 13 7 WSW 1020,8 10
19.01.2020 08:00:00 1,8 1,1 11 6 SW 1019,0 10
19.01.2020 07:00:00 2,3 1,4 9 5 W 1017,7 10
19.01.2020 06:00:00 2,9 1,7 9 5 W 1016,5 10
19.01.2020 05:00:00 3,8 2,3 15 8 W 1015,1 10
19.01.2020 04:00:00 4,5 2,5 13 7 WSW 1013,7 10
19.01.2020 03:00:00 5,0 3,0 13 7 WSW 1012,4 10
19.01.2020 02:00:00 5,0 3,2 16 9 WSW 1010,9 10
19.01.2020 01:00:00 4,9 2,9 13 7 SW 1009,6 10

tt = Température de l'air
td = dewpoint
ff = Vitesse du vent
dd = Direction du vent
ppp = reduced air pressure
vv = visibility

stations d'obs. à proximité